x

Big Sable Point, Mi (bsbm4) Weather Station

9:40am - Fri 31st Oct 2014 All times are CDT. -5 hours from GMT.

  • Wind
    38mph, 54mph gusts
  • Air Temp 38°f
  • Sea Pressure 1019.3mb
  • Big Sable Point, Mi
  • Big Sable Point, Mi

More Historic Weather Station data

Upgrade to MSW Pro to gain access to the past 30 days of data for over 8000 Wavebouys and Weather Stations around the globe.

Join Pro

Comparision Forecast

View Surf forecast
   
Fri 10/31 9:40am 38 54 mph 1019.3mb 38f
9:30am 40 55 mph 1019mb 37f
9:21am 36 44 mph 1019mb 37f
9:20am 36 49 mph 1018.6mb 37f
9:10am 43 61 mph 1018.6mb 36f
9:01am 41
mph
1018.3mb 37f
9:00am 41 54 mph 1017.9mb 37f
8:40am 43 55 mph 1017.6mb 38f
8:30am 41 60 mph 1017.3mb 39f
8:20am 43 59 mph 1016.9mb 38f
8:10am 40 57 mph 1016.9mb 38f
8:01am 41
mph
1016.6mb 38f
8:00am 41 55 mph 1016.3mb 38f
7:40am 41 59 mph 1016.3mb 38f
7:30am 46 59 mph 1015.9mb 38f
7:20am 40 59 mph 1015.6mb 39f
7:10am 37 54 mph 1015.2mb 38f
7:00am 41 54 mph 1015.2mb 38f
6:40am 39 56 mph 1014.6mb 38f
6:30am 36 52 mph 1014.6mb 39f
6:20am 36 45 mph 1014.2mb 39f
6:10am 29 51 mph 1014.6mb 38f
6:00am 39 53 mph 1014.6mb 39f
5:40am 39 47 mph 1014.6mb 40f
5:30am 33 44 mph 1014.6mb 41f
5:29am 28 44 mph 1014.6mb 41f
5:20am 29 39 mph 1014.6mb 42f
5:11am 31 36 mph 1014.6mb 41f
5:10am 31 38 mph 1014.6mb 41f
5:00am 31 37 mph 1014.6mb 41f
4:40am 33 41 mph 1014.6mb 41f
4:30am 33 40 mph 1014.6mb 41f
4:20am 33 41 mph 1014.6mb 41f
4:11am 33 41 mph 1014.6mb 41f
4:10am 33 39 mph 1014.6mb 41f
4:00am 30 36 mph 1014.6mb 42f
3:57am 30
mph
1014.9mb 42f
3:40am 31 37 mph 1014.6mb 42f
3:30am 32 36 mph 1014.6mb 42f
3:20am 29 34 mph 1014.6mb 43f
3:10am 26 32 mph 1014.6mb 43f
3:00am 24 31 mph 1014.6mb 44f
2:57am 24 29 mph 1014.6mb 44f
2:40am 26 31 mph 1014.9mb 44f
2:30am 24 31 mph 1014.6mb 44f
2:20am 25 31 mph 1014.6mb 44f
2:10am 25 30 mph 1014.6mb 44f
2:00am 25 29 mph 1014.6mb 44f
1:40am 22 28 mph 1014.9mb 44f
1:30am 16 23 mph 1014.9mb 44f
1:20am 21 28 mph 1014.9mb 44f
1:10am 22 28 mph 1014.9mb 44f
1:00am 24 28 mph 1014.9mb 45f
12:40am 23 26 mph 1014.9mb 46f
12:30am 23 28 mph 1014.9mb 46f
12:20am 24 28 mph 1015.2mb 46f
12:10am 22 26 mph 1014.9mb 46f
12:00am 22 24 mph 1014.9mb 46f
Thu 10/30 11:40pm 20 25 mph 1015.2mb 47f
11:30pm 21 25 mph 1014.9mb 47f
11:20pm 20 23 mph 1014.9mb 47f
11:10pm 21 23 mph 1014.9mb 47f
11:00pm 20 23 mph 1015.2mb 47f
10:40pm 16 20 mph 1015.2mb 48f
10:30pm 14 18 mph 1015.2mb 48f
10:20pm 15 17 mph 1015.2mb 48f
10:10pm 16 22 mph 1015.6mb 48f
10:00pm 15 17 mph 1015.6mb 48f
9:40pm 11 14 mph 1015.6mb 48f
9:30pm 8 14 mph 1015.6mb 48f
9:20pm 10 15 mph 1015.6mb 48f
9:10pm 13 16 mph 1015.6mb 48f
9:00pm 11 17 mph 1015.9mb 48f
8:40pm 14 15 mph 1015.9mb 48f
8:30pm 14 15 mph 1016.3mb 48f
8:20pm 11 14 mph 1016.3mb 48f
8:10pm 11 15 mph 1016.6mb 48f
8:00pm 11 14 mph 1016.6mb 48f
7:40pm 13 16 mph 1016.6mb 48f
7:30pm 13 16 mph 1016.9mb 48f
7:20pm 13 15 mph 1016.9mb 48f
7:10pm 13 16 mph 1016.9mb 48f
7:00pm 14 17 mph 1016.9mb 48f
6:40pm 15 17 mph 1016.9mb 48f
6:30pm 13 16 mph 1017.3mb 48f
6:20pm 11 15 mph 1016.9mb 47f
6:10pm 13 15 mph 1016.9mb 47f
6:00pm 11 17 mph 1016.9mb 47f
5:40pm 11 15 mph 1017.3mb 47f
5:30pm 13 16 mph 1017.3mb 47f
5:20pm 11 14 mph 1017.3mb 47f
5:10pm 13 14 mph 1017.3mb 47f
5:00pm 13 14 mph 1017.3mb 47f
4:40pm 13 14 mph 1017.3mb 47f
4:30pm 10 15 mph 1017.3mb 47f
4:20pm 11 16 mph 1017.3mb 47f
4:10pm 11 15 mph 1017.6mb 47f
4:00pm 10 15 mph 1017.6mb 47f
3:40pm 11 16 mph 1017.3mb 47f
3:30pm 14 17 mph 1017.3mb 48f
3:20pm 13 16 mph 1017.3mb 48f
3:10pm 11 16 mph 1017.3mb 48f
3:00pm 11 17 mph 1017.3mb 48f
2:40pm 13 18 mph 1017.3mb 47f
2:30pm 14 16 mph 1017.6mb 47f
2:20pm 13 15 mph 1017.6mb 47f
2:10pm 14 16 mph 1017.6mb 47f
2:00pm 13 17 mph 1017.6mb 47f
1:40pm 13 17 mph 1017.9mb 47f
1:30pm 13 16 mph 1017.9mb 47f
1:20pm 15 17 mph 1017.9mb 47f
1:10pm 14 17 mph 1018.3mb 47f
1:00pm 14 17 mph 1018.3mb 47f
12:40pm 14 17 mph 1018.6mb 47f
12:30pm 14 17 mph 1018.6mb 47f
12:20pm 14 17 mph 1019mb 47f
12:10pm 15 18 mph 1019mb 47f
12:00pm 15 16 mph 1019mb 47f
11:40am 14 18 mph 1019mb 47f
11:30am 15 18 mph 1019mb 47f
11:20am 15 17 mph 1019mb 47f
11:10am 15 18 mph 1019.3mb 47f
11:00am 16 17 mph 1019.3mb 47f
10:40am 14 16 mph 1019.3mb 47f
10:30am 15 18 mph 1019mb 47f
10:20am 15 18 mph 1019mb 47f
10:10am 15 18 mph 1019.3mb 47f
10:00am 15 18 mph 1019.3mb 47f
9:50am 15 18 mph 1019.3mb 47f
9:40am 15 18 mph 1019.3mb 47f
9:30am 14 17 mph 1019.3mb 47f
9:20am 13 17 mph 1019.3mb 47f
9:10am 14 16 mph 1019.3mb 47f
9:00am 13 15 mph 1019.3mb 47f
8:50am 10 14 mph 1019.3mb 47f
8:40am 11 14 mph 1019.3mb 47f
8:30am 11 14 mph 1019.3mb 47f
8:20am 10 15 mph 1019.6mb 47f
8:10am 11 15 mph 1019.6mb 46f
8:00am 11 15 mph 1019.3mb 47f
7:50am 13 16 mph 1019.3mb 46f
7:40am 13 17 mph 1019.3mb 46f
7:30am 13 16 mph 1019.6mb 46f
7:20am 13 17 mph 1019.6mb 46f
7:10am 14 17 mph 1019.6mb 46f
7:00am 16 18 mph 1019.6mb 47f
6:50am 13 17 mph 1019.6mb 47f
6:40am 15 17 mph 1019.6mb 47f
6:30am 13 17 mph 1019.6mb 47f
6:20am 13 17 mph 1019.3mb 47f
6:10am 13 17 mph 1019.3mb 47f
6:00am 9 15 mph 1019.3mb 47f
5:50am 9 13 mph 1019.3mb 47f
5:40am 9 13 mph 1019.3mb 47f
5:30am 10 14 mph 1019.3mb 47f
5:20am 9 13 mph 1019mb 47f
5:10am 10 11 mph 1019.3mb 47f
5:00am 9 11 mph 1019mb 47f
4:50am 9 11 mph 1019mb 46f
4:40am 9 13 mph 1019mb 46f
4:30am 10 14 mph 1019mb 47f
4:20am 11 16 mph 1019mb 47f
4:10am 9 13 mph 1019mb 47f
4:00am 11 15 mph 1019mb 47f
3:50am 11 14 mph 1019mb 47f
3:40am 13 15 mph 1019mb 47f
3:30am 11 15 mph 1019.3mb 47f
3:20am 13 15 mph 1019.3mb 47f
3:10am 11 15 mph 1019.3mb 47f
3:00am 13 15 mph 1019.3mb 47f
2:50am 13 15 mph 1019.3mb 47f
2:40am 14 16 mph 1019.3mb 47f
2:30am 13 17 mph 1019.3mb 47f
2:20am 15 17 mph 1019.3mb 48f
2:10am 15 18 mph 1019.6mb 48f
2:00am 17 18 mph 1019.3mb 48f
1:50am 17 20 mph 1019.3mb 48f
1:40am 17 20 mph 1019.6mb 48f
1:30am 16 21 mph 1019.3mb 48f
1:20am 18 20 mph 1019.3mb 48f
1:10am 17 21 mph 1019.3mb 48f
1:00am 17 20 mph 1019.3mb 48f
12:50am 18 20 mph 1019.3mb 48f
12:40am 17 21 mph 1019.3mb 48f
12:30am 17 20 mph 1019.3mb 48f
12:20am 17 20 mph 1019.3mb 48f
12:10am 16 20 mph 1019.3mb 48f
12:00am 16 18 mph 1019.3mb 48f
Wed 10/29 11:40pm 2 5 mph 1019.3mb 44f
11:30pm 2 5 mph 1019.3mb 44f
11:20pm 2 3 mph 1019.3mb 44f
11:10pm 2 3 mph 1019.3mb 44f
11:00pm 3
mph
1019.3mb 44f
10:50pm 3 5 mph 1019.3mb 44f
10:40pm 3 5 mph 1019.6mb 44f
10:30pm 3 5 mph 1019.6mb 44f
10:20pm 2 3 mph 1019.3mb 44f
10:10pm 2 5 mph 1019.6mb 44f
10:00pm 5
mph
1019.3mb 44f
9:50pm 5 6 mph 1019.3mb 44f
9:40pm 3 5 mph 1019.3mb 44f
9:30pm 5 6 mph 1019.3mb 44f
9:20pm 5 7 mph 1019.3mb 44f
9:10pm 6 7 mph 1019.3mb 45f
9:00pm 5 7 mph 1019.3mb 45f
8:50pm 5 8 mph 1019.3mb 45f
8:40pm 7 10 mph 1019.3mb 46f
8:30pm 8 14 mph 1019.3mb 46f
8:20pm 8 11 mph 1019.3mb 48f
8:10pm 8 10 mph 1019.3mb 48f
8:00pm 9 13 mph 1019.3mb 48f
7:50pm 10 11 mph 1019.3mb 48f
7:40pm 9 11 mph 1019.3mb 48f
7:30pm 11 13 mph 1019.3mb 48f
7:20pm 10 13 mph 1019.3mb 47f
7:10pm 10 14 mph 1019.3mb 47f
7:00pm 13 15 mph 1019.3mb 47f
6:50pm 13 14 mph 1019.3mb 47f
6:40pm 6 10 mph 1019mb 47f
6:30pm 8 9 mph 1019mb 46f
6:20pm 8 14 mph 1019mb 46f
6:10pm 10 16 mph 1019mb 46f
6:00pm 10 15 mph 1018.6mb 47f
5:50pm 11 13 mph 1018.6mb 46f
5:40pm 7 9 mph 1018.6mb 46f
5:30pm 8 14 mph 1018.6mb 45f
5:20pm 15 17 mph 1018.6mb 46f
5:10pm 10 17 mph 1018.3mb 46f
5:00pm 14 17 mph 1018.3mb 46f
4:50pm 10 15 mph 1018.3mb 46f
4:40pm 11 15 mph 1018.3mb 45f
4:30pm 9 17 mph 1018.3mb 45f
4:20pm 16 21 mph 1017.9mb 45f
4:10pm 15 17 mph 1017.9mb 46f
4:00pm 15 18 mph 1017.9mb 46f
3:50pm 15 17 mph 1017.9mb 45f
3:40pm 15 20 mph 1017.9mb 45f
3:30pm 17 21 mph 1017.9mb 45f
3:20pm 20 22 mph 1017.6mb 46f
3:10pm 15 17 mph 1017.6mb 47f
3:00pm 14 25 mph 1017.3mb 45f
2:50pm 18 21 mph 1017.3mb 45f
2:40pm 15 21 mph 1017.3mb 46f
2:30pm 17 21 mph 1016.9mb 47f
2:20pm 15 20 mph 1016.9mb 47f
2:10pm 17 22 mph 1016.9mb 47f
2:00pm 11 18 mph 1016.9mb 46f
1:50pm 16 18 mph 1016.9mb 46f
1:40pm 16 20 mph 1016.9mb 47f
1:30pm 13 22 mph 1016.6mb 48f
1:20pm 16 21 mph 1016.6mb 47f
1:10pm 17 22 mph 1016.6mb 48f
1:00pm 16 23 mph 1016.6mb 47f
12:50pm 20 22 mph 1016.6mb 46f
12:40pm 17 23 mph 1016.6mb 46f
12:30pm 17 26 mph 1016.6mb 46f
12:20pm 16 20 mph 1016.3mb 45f
12:10pm 20 22 mph 1016.3mb 44f
12:00pm 21 24 mph 1016.3mb 45f
11:50am 18 21 mph 1016.3mb 45f
11:40am 18 28 mph 1016.3mb 44f
11:30am 25 28 mph 1016.3mb 45f
11:20am 20 25 mph 1015.9mb 44f
11:10am 23 32 mph 1015.9mb 45f
11:06am 22 31 mph 1015.2mb 44f
11:00am 20 23 mph 1015.6mb 44f
10:50am 21 30 mph 1015.6mb 43f
10:40am 22 30 mph 1015.6mb 44f
10:30am 21 26 mph 1015.6mb 45f
10:20am 23 29 mph 1015.2mb 45f
10:10am 23 26 mph 1015.2mb 45f
10:00am 23 29 mph 1014.9mb 45f
9:50am 24 30 mph 1014.9mb 45f
9:49am 23 30 mph 1014.9mb 45f
9:40am 24 29 mph 1014.9mb 45f
9:30am 24 29 mph 1014.6mb 45f
9:20am 24 29 mph 1014.2mb 45f
9:10am 22 26 mph 1014.2mb 45f
9:00am 22 28 mph 1014.2mb 45f
8:50am 23 29 mph 1014.2mb 44f
8:40am 23 30 mph 1014.2mb 44f
8:30am 22 29 mph 1013.9mb 44f
8:20am 26 30 mph 1013.9mb 44f
8:10am 25 31 mph 1013.9mb 44f
8:00am 24 29 mph 1013.5mb 45f
7:50am 25 30 mph 1013.5mb 45f
7:41am 26 30 mph 1013.2mb 45f
7:40am 26 29 mph 1013.5mb 45f
7:30am 26 30 mph 1013.2mb 45f
7:20am 25 31 mph 1013.2mb 44f
7:10am 25 29 mph 1012.9mb 45f
7:00am 25 30 mph 1012.9mb 45f
6:50am 24 28 mph 1012.9mb 45f
6:40am 25 31 mph 1012.9mb 45f
6:30am 25 30 mph 1012.5mb 45f
6:20am 28 31 mph 1012.5mb 45f
6:10am 25 30 mph 1012.5mb 45f
6:00am 24 28 mph 1012.5mb 46f
5:50am 25 31 mph 1012.2mb 46f
5:40am 26 30 mph 1012.2mb 46f
5:30am 24 30 mph 1012.2mb 46f
5:20am 26 32 mph 1012.2mb 46f
5:10am 25 32 mph 1012.2mb 46f
5:00am 31 34 mph 1012.2mb 46f
4:50am 29 37 mph 1012.2mb 46f
4:40am 32 38 mph 1011.9mb 46f
4:30am 30 40 mph 1011.9mb 46f
4:20am 30 34 mph 1011.9mb 46f
4:10am 28 33 mph 1011.5mb 46f
4:00am 28 32 mph 1011.5mb 46f
3:50am 29 32 mph 1011.5mb 46f
3:40am 28 34 mph 1011.5mb 46f
3:30am 31 34 mph 1011.5mb 46f
3:25am 28 31 mph 1011.5mb 46f
3:20am 31 38 mph 1011.5mb 46f
3:10am 28 36 mph 1011.2mb 47f
3:00am 31 36 mph 1011.2mb 47f
2:50am 28 37 mph 1011.2mb 47f
2:40am 30 37 mph 1011.2mb 47f
2:30am 29 34 mph 1010.8mb 47f
2:24am 25 30 mph 1010.8mb 47f
2:20am 28 36 mph 1010.8mb 47f
2:10am 26 34 mph 1010.8mb 47f
2:00am 29 36 mph 1010.8mb 47f
1:50am 31 36 mph 1010.5mb 47f
1:40am 26 36 mph 1010.5mb 48f
1:30am 29 38 mph 1010.5mb 48f
1:24am 31
mph
1010.5mb 48f
1:20am 31 38 mph 1010.2mb 48f
1:10am 31 36 mph 1010.5mb 48f
1:00am 25 36 mph 1010.2mb 48f
12:50am 24 39 mph 1010.2mb 49f
12:40am 25 32 mph 1010.2mb 49f
12:30am 24 33 mph 1010.2mb 49f
12:23am 25 29 mph 1010.2mb 49f
12:20am 24 32 mph 1010.5mb 49f
12:10am 23 33 mph 1010.5mb 49f
12:00am 26 34 mph 1010.2mb 49f
Tue 10/28 11:50pm 24 36 mph 1010.5mb 49f
11:40pm 25 36 mph 1010.5mb 50f
11:30pm 23 33 mph 1010.5mb 50f
11:22pm 23 29 mph 1010.5mb 50f
11:20pm 23 29 mph 1010.5mb 50f
11:10pm 20 31 mph 1010.5mb 50f
11:00pm 23 31 mph 1010.8mb 50f
10:50pm 23 32 mph 1010.8mb 50f
10:40pm 21 30 mph 1010.8mb 50f
10:30pm 23 33 mph 1010.8mb 50f
10:20pm 28 34 mph 1010.8mb 50f
10:18pm 24 32 mph 1010.8mb 50f
10:10pm 28 34 mph 1010.8mb 50f
10:00pm 24 36 mph 1011.2mb 50f
9:50pm 26 34 mph 1011.2mb 50f
9:40pm 29 34 mph 1010.8mb 50f
9:30pm 29 33 mph 1010.8mb 50f
9:20pm 28 34 mph 1010.8mb 50f
9:17pm 28 31 mph 1011.2mb 50f
9:10pm 24 37 mph 1011.2mb 50f
9:00pm 26 34 mph 1011.2mb 50f
8:50pm 30 36 mph 1010.8mb 50f
8:40pm 29 34 mph 1011.2mb 50f
8:30pm 30 34 mph 1010.8mb 50f
8:20pm 25 30 mph 1011.2mb 51f
8:17pm 22 29 mph 1011.2mb 50f
8:10pm 22 29 mph 1011.2mb 50f
8:00pm 22 31 mph 1011.2mb 50f
7:50pm 21 31 mph 1011.2mb 50f
7:40pm 21 28 mph 1011.2mb 50f
7:30pm 21 29 mph 1011.2mb 50f
7:20pm 22 32 mph 1011.2mb 50f
7:12pm 21 30 mph 1011.2mb 50f
7:10pm 22 31 mph 1011.2mb 50f
7:00pm 23 31 mph 1011.2mb 50f
6:50pm 18 30 mph 1011.2mb 50f
6:40pm 26 31 mph 1010.8mb 50f
6:30pm 25 32 mph 1010.8mb 50f
6:20pm 23 31 mph 1010.8mb 50f
6:11pm 23 31 mph 1010.5mb 50f
6:10pm 23 30 mph 1010.5mb 50f
6:00pm 25 31 mph 1010.5mb 50f
5:50pm 22 32 mph 1010.2mb 50f
5:40pm 24 32 mph 1010.2mb 51f
5:30pm 23 34 mph 1010.2mb 51f
5:20pm 24 34 mph 1009.8mb 51f
5:10pm 28 34 mph 1009.8mb 51f
5:00pm 24 34 mph 1009.5mb 51f
4:50pm 31 36 mph 1009.5mb 51f
4:40pm 29 38 mph 1009.5mb 51f
4:30pm 25 36 mph 1009.1mb 52f
4:20pm 26 37 mph 1009.1mb 52f
4:10pm 26 33 mph 1008.8mb 52f
4:09pm 22 29 mph 1008.8mb 52f
4:00pm 26 33 mph 1008.5mb 52f
3:50pm 23 31 mph 1008.5mb 53f
3:40pm 22 32 mph 1008.5mb 53f
3:30pm 25 33 mph 1008.5mb 53f
3:20pm 24 31 mph 1008.1mb 53f
3:10pm 26 31 mph 1007.8mb 53f
3:09pm 25 30 mph 1007.8mb 53f
3:00pm 24 30 mph 1008.1mb 53f
2:50pm 26 31 mph 1007.8mb 53f
2:40pm 25 29 mph 1007.8mb 53f
2:30pm 24 30 mph 1007.8mb 54f
2:20pm 21 29 mph 1007.8mb 54f
2:10pm 25 29 mph 1007.5mb 53f
2:08pm 24 29 mph 1007.5mb 54f
2:00pm 21 26 mph 1007.5mb 54f
1:50pm 20 24 mph 1007.5mb 54f
1:40pm 18 23 mph 1007.5mb 54f
1:30pm 18 25 mph 1007.5mb 54f
1:20pm 22 26 mph 1007.5mb 53f
1:10pm 22 26 mph 1007.5mb 53f
1:00pm 20 24 mph 1007.1mb 53f
12:50pm 18 23 mph 1007.1mb 53f
12:40pm 20 25 mph 1007.1mb 52f
12:30pm 23 26 mph 1007.1mb 52f
12:20pm 20 24 mph 1007.1mb 52f
12:10pm 22 23 mph 1006.8mb 52f
12:00pm 22 23 mph 1006.8mb 52f
11:50am 20 22 mph 1006.8mb 52f
11:40am 18 22 mph 1007.1mb 52f
11:30am 18 26 mph 1007.1mb 52f
11:20am 21 24 mph 1007.1mb 52f
11:10am 18 24 mph 1006.8mb 52f
11:00am 18 24 mph 1006.8mb 52f
10:50am 22 25 mph 1006.8mb 52f
10:40am 17 25 mph 1006.8mb 52f
10:30am 22 26 mph 1006.8mb 51f
10:20am 20 25 mph 1006.4mb 52f
10:10am 20 25 mph 1006.4mb 52f
10:00am 21 26 mph 1006.4mb 52f
9:50am 21 28 mph 1006.1mb 52f
9:40am 21 25 mph 1006.1mb 51f
9:30am 20 25 mph 1006.1mb 52f
9:20am 20 29 mph 1006.1mb 52f
9:10am 23 29 mph 1005.4mb 52f
9:00am 20 25 mph 1005.1mb 52f
8:50am 21 24 mph 1005.1mb 52f
8:40am 22 26 mph 1005.1mb 52f
8:30am 23 26 mph 1005.1mb 53f
8:20am 21 29 mph 1005.1mb 53f
8:10am 20 23 mph 1004.7mb 53f
8:00am 15 24 mph 1004.7mb 53f
7:50am 17 22 mph 1004.4mb 53f
7:40am 14 17 mph 1004.4mb 53f
7:30am 15 17 mph 1004.4mb 53f
7:20am 13 18 mph 1003.7mb 53f
7:10am 15 18 mph 1003.7mb 53f
7:00am 15 20 mph 1003.7mb 53f
6:50am 16 21 mph 1004.1mb 53f
6:40am 17 23 mph 1003.7mb 53f
6:30am 17 23 mph 1003.7mb 53f
6:20am 18 22 mph 1004.1mb 53f
6:10am 16 20 mph 1003.7mb 53f
6:00am 17 20 mph 1003.7mb 53f
5:50am 16 20 mph 1003.7mb 53f
5:40am 14 20 mph 1003.4mb 53f
5:30am 15 20 mph 1003.4mb 53f
5:20am 15 21 mph 1003mb 53f
5:10am 17 20 mph 1003mb 53f
5:00am 16 20 mph 1003mb 53f
4:50am 16 22 mph 1002.7mb 54f
4:40am 18 26 mph 1002.4mb 54f
4:30am 22 29 mph 1002mb 55f
4:20am 24 26 mph 1002mb 56f
4:10am 25 29 mph 1001.7mb 56f
4:00am 26 30 mph 1001.4mb 56f
3:56am 22 30 mph 1001.4mb 56f
3:50am 18 25 mph 1001mb 56f
3:40am 16 24 mph 1001mb 56f
3:30am 17 25 mph 1001mb 56f
3:20am 17 24 mph 1001mb 56f
3:10am 18 24 mph 1000.7mb 56f
3:00am 17 24 mph 1000.7mb 56f
2:50am 18 24 mph 1000.7mb 57f
2:40am 18 26 mph 1001mb 57f
2:30am 20 28 mph 1001mb 57f
2:20am 21 31 mph 1001mb 57f
2:13am 22 31 mph 1001mb 57f
2:10am 22 29 mph 1001mb 57f
2:00am 22 29 mph 1001mb 58f
1:50am 20 25 mph 1001mb 58f
1:40am 20 26 mph 1001mb 58f
1:30am 20 26 mph 1001mb 58f
1:20am 20 26 mph 1001mb 58f
1:10am 17 24 mph 1001mb 58f
1:00am 18 24 mph 1001mb 58f
12:50am 17 24 mph 1001mb 58f
12:40am 17 24 mph 1001.4mb 58f
12:30am 17 24 mph 1001.4mb 58f
12:20am 18 24 mph 1001.7mb 58f
12:10am 17 24 mph 1001.7mb 58f
12:00am 16 22 mph 1001.7mb 57f
Mon 10/27 11:50pm 16 22 mph 1001.7mb 57f
11:40pm 16 23 mph 1001.7mb 57f
11:30pm 15 22 mph 1001.7mb 57f
11:20pm 16 21 mph 1001.7mb 57f
11:10pm 15 18 mph 1001.7mb 57f
11:00pm 14 20 mph 1002mb 57f
10:50pm 13 18 mph 1002mb 57f
10:40pm 13 18 mph 1002mb 57f
10:30pm 13 20 mph 1002mb 57f
10:20pm 13 18 mph 1002mb 57f
10:10pm 14 18 mph 1002mb 58f
10:00pm 13 17 mph 1002mb 57f
9:50pm 15 20 mph 1002mb 57f
9:40pm 16 21 mph 1002.4mb 58f
9:30pm 15 21 mph 1002.4mb 58f
9:20pm 15 21 mph 1002.4mb 58f
9:10pm 15 21 mph 1002.4mb 58f
9:00pm 16 21 mph 1002.4mb 58f
8:50pm 14 20 mph 1002.4mb 58f
8:40pm 14 20 mph 1002.4mb 59f
8:30pm 14 22 mph 1002.4mb 60f
8:20pm 14 22 mph 1002.4mb 60f
8:10pm 17 23 mph 1002.4mb 61f
8:00pm 16 23 mph 1002.4mb 62f
7:50pm 16 22 mph 1002.7mb 64f
7:40pm 15 23 mph 1002.7mb 65f
7:30pm 16 21 mph 1002.7mb 66f
7:20pm 11 17 mph 1002.7mb 67f
7:10pm 13 20 mph 1003mb 67f
7:00pm 13 18 mph 1002.7mb 66f
6:50pm 13 22 mph 1002.7mb 67f
6:40pm 14 21 mph 1002.7mb 66f
6:30pm 15 18 mph 1002.7mb 64f
6:20pm 13 18 mph 1002.7mb 63f
6:10pm 14 21 mph 1002.7mb 63f
6:00pm 11 17 mph 1002.7mb 61f
5:50pm 13 18 mph 1002.7mb 60f
5:40pm 13 20 mph 1002.7mb 61f
5:30pm 14 20 mph 1002.4mb 60f
5:20pm 14 21 mph 1002.4mb 60f
5:10pm 16 23 mph 1002.7mb 62f
5:00pm 17 23 mph 1002.4mb 62f
4:50pm 15 21 mph 1002.4mb 60f
4:40pm 15 21 mph 1002.7mb 60f
4:30pm 17 21 mph 1002.7mb 61f
4:20pm 17 25 mph 1002.7mb 62f
4:10pm 20 28 mph 1003mb 63f
4:00pm 20 26 mph 1003mb 64f
3:50pm 18 30 mph 1003.4mb 64f
3:47pm 21 30 mph 1003.4mb 64f